Location: Saint Louis
(38.6272°N, 90.1978°W)
Time: 07:04:42
(UTC-05:00)

ISS - Pass Details

Date: 24 June 2013
Orbit: 401 x 404 km, 51.6° (Epoch: 29 July)

Event Time Altitude Azimuth Distance (km) Brightness Sun altitude
Rises 21:41:38 0° 304° (NW) 2,352 2.5 -12.1°
Reaches altitude 10° 21:43:47 10° 298° (WNW) 1,483 0.8 -12.4°
Maximum altitude 21:46:59 47° 224° (SW) 553 -2.7 -12.8°
Enters shadow 21:48:47 22° 159° (SSE) 945 -2.0 -13.1°
